Time,TemperatureF,DewpointF,PressureIn,WindDirection,WindDirectionDegrees,WindSpeedMPH,WindSpeedGustMPH,Humidity,HourlyPrecipIn,Conditions,Clouds,dailyrainin,SoftwareType,DateUTC
2013-05-13 00:00:00,65.2,51.0,27.96,WSW,247,0.0,5.0,60,0.00,,,0.00,VWS V14.01,2013-05-13 07:00:00,
2013-05-13 00:02:00,65.1,51.3,27.96,WSW,246,0.0,0.0,61,0.00,,,0.00,VWS V14.01,2013-05-13 07:02:00,
2013-05-13 00:07:00,64.4,51.5,27.96,WSW,256,0.0,0.0,63,0.00,,,0.00,VWS V14.01,2013-05-13 07:07:00,
2013-05-13 00:12:00,63.4,51.4,27.96,West,278,0.0,0.0,65,0.00,,,0.00,VWS V14.01,2013-05-13 07:12:00,
2013-05-13 00:17:00,62.8,51.3,27.95,WNW,291,0.0,0.0,66,0.00,,,0.00,VWS V14.01,2013-05-13 07:17:00,
2013-05-13 00:23:00,62.4,51.3,27.96,WNW,293,0.0,0.0,67,0.00,,,0.00,VWS V14.01,2013-05-13 07:23:00,
2013-05-13 00:28:00,62.1,51.0,27.95,WNW,288,0.0,0.0,67,0.00,,,0.00,VWS V14.01,2013-05-13 07:28:00,
2013-05-13 00:30:00,62.0,51.3,27.96,WNW,287,0.0,1.0,68,0.00,,,0.00,VWS V14.01,2013-05-13 07:30:00,
2013-05-13 00:33:00,61.9,51.2,27.95,WNW,286,0.0,0.0,68,0.00,,,0.00,VWS V14.01,2013-05-13 07:33:00,
2013-05-13 00:38:00,61.9,51.2,27.96,West,263,2.0,3.0,68,0.00,,,0.00,VWS V14.01,2013-05-13 07:38:00,
2013-05-13 00:43:00,61.9,51.6,27.95,West,259,1.0,8.0,69,0.00,,,0.00,VWS V14.01,2013-05-13 07:43:00,
2013-05-13 00:48:00,62.2,51.5,27.96,West,267,4.0,8.0,68,0.00,,,0.00,VWS V14.01,2013-05-13 07:48:00,
2013-05-13 00:53:00,62.2,51.5,27.97,West,261,2.0,8.0,68,0.00,,,0.00,VWS V14.01,2013-05-13 07:53:00,
2013-05-13 00:58:00,62.1,51.4,27.95,West,261,5.0,8.0,68,0.00,,,0.00,VWS V14.01,2013-05-13 07:58:00,
2013-05-13 01:00:00,62.0,51.3,27.96,West,269,1.0,8.0,68,0.00,,,0.00,VWS V14.01,2013-05-13 08:00:00,
2013-05-13 01:03:00,61.9,51.6,27.96,WSW,248,2.0,8.0,69,0.00,,,0.00,VWS V14.01,2013-05-13 08:03:00,
2013-05-13 01:09:00,61.7,51.4,27.96,WSW,255,1.0,8.0,69,0.00,,,0.00,VWS V14.01,2013-05-13 08:09:00,
2013-05-13 01:14:00,61.7,51.4,27.96,WSW,255,2.0,8.0,69,0.00,,,0.00,VWS V14.01,2013-05-13 08:14:00,
2013-05-13 01:19:00,61.8,51.5,27.96,West,263,4.0,8.0,69,0.00,,,0.00,VWS V14.01,2013-05-13 08:19:00,
2013-05-13 01:24:00,61.9,51.2,27.96,WSW,247,1.0,9.0,68,0.00,,,0.00,VWS V14.01,2013-05-13 08:24:00,
2013-05-13 01:29:00,61.9,51.2,27.95,WSW,243,6.0,9.0,68,0.00,,,0.00,VWS V14.01,2013-05-13 08:29:00,
2013-05-13 01:30:00,61.9,51.2,27.95,WSW,243,6.0,9.0,68,0.00,,,0.00,VWS V14.01,2013-05-13 08:30:00,
2013-05-13 01:34:00,61.6,51.3,27.96,WSW,252,7.0,7.0,69,0.00,,,0.00,VWS V14.01,2013-05-13 08:34:00,
2013-05-13 01:39:00,61.6,51.0,27.96,West,261,5.0,7.0,68,0.00,,,0.00,VWS V14.01,2013-05-13 08:39:00,
2013-05-13 01:45:00,61.3,51.1,27.95,WSW,241,3.0,9.0,69,0.00,,,0.00,VWS V14.01,2013-05-13 08:45:00,
2013-05-13 01:50:00,61.1,51.2,27.95,West,261,7.0,10.0,70,0.00,,,0.00,VWS V14.01,2013-05-13 08:50:00,
2013-05-13 01:55:00,61.0,51.5,27.94,West,267,3.0,11.0,71,0.00,,,0.00,VWS V14.01,2013-05-13 08:55:00,
2013-05-13 02:00:00,60.8,51.3,27.95,South,187,3.0,7.0,71,0.00,,,0.00,VWS V14.01,2013-05-13 09:00:00,
2013-05-13 02:05:00,60.7,50.9,27.95,WSW,254,2.0,9.0,70,0.00,,,0.00,VWS V14.01,2013-05-13 09:05:00,
2013-05-13 02:10:00,60.8,51.0,27.95,West,259,3.0,9.0,70,0.00,,,0.00,VWS V14.01,2013-05-13 09:10:00,
2013-05-13 02:15:00,61.0,50.8,27.95,WSW,256,6.0,9.0,69,0.00,,,0.00,VWS V14.01,2013-05-13 09:15:00,
2013-05-13 02:20:00,61.1,50.5,27.95,West,269,4.0,10.0,68,0.00,,,0.00,VWS V14.01,2013-05-13 09:20:00,
2013-05-13 02:25:00,61.0,50.4,27.95,SW,230,3.0,10.0,68,0.00,,,0.00,VWS V14.01,2013-05-13 09:25:00,
2013-05-13 02:30:00,60.9,50.3,27.95,WSW,255,8.0,10.0,68,0.00,,,0.00,VWS V14.01,2013-05-13 09:30:00,
2013-05-13 02:31:00,61.0,50.8,27.95,West,279,3.0,11.0,69,0.00,,,0.00,VWS V14.01,2013-05-13 09:31:00,
2013-05-13 02:36:00,60.8,50.6,27.95,WSW,243,3.0,11.0,69,0.00,,,0.00,VWS V14.01,2013-05-13 09:36:00,
2013-05-13 02:41:00,60.7,50.1,27.96,WSW,251,0.0,11.0,68,0.00,,,0.00,VWS V14.01,2013-05-13 09:41:00,
2013-05-13 02:46:00,60.7,50.1,27.95,West,264,0.0,11.0,68,0.00,,,0.00,VWS V14.01,2013-05-13 09:46:00,
2013-05-13 02:51:00,60.7,50.5,27.95,WSW,249,3.0,11.0,69,0.00,,,0.00,VWS V14.01,2013-05-13 09:51:00,
2013-05-13 02:56:00,60.2,50.0,27.95,WSW,256,2.0,11.0,69,0.00,,,0.00,VWS V14.01,2013-05-13 09:56:00,
2013-05-13 03:00:00,59.9,50.5,27.95,West,262,4.0,11.0,71,0.00,,,0.00,VWS V14.01,2013-05-13 10:00:00,
2013-05-13 03:01:00,59.7,50.3,27.95,West,266,2.0,7.0,71,0.00,,,0.00,VWS V14.01,2013-05-13 10:01:00,
2013-05-13 03:06:00,59.4,50.0,27.95,WSW,258,5.0,9.0,71,0.00,,,0.00,VWS V14.01,2013-05-13 10:06:00,
2013-05-13 03:11:00,59.4,50.0,27.95,WSW,253,4.0,11.0,71,0.00,,,0.00,VWS V14.01,2013-05-13 10:11:00,
2013-05-13 03:17:00,59.1,50.1,27.95,WSW,251,7.0,11.0,72,0.00,,,0.00,VWS V14.01,2013-05-13 10:17:00,
2013-05-13 03:22:00,58.8,49.8,27.95,West,265,2.0,11.0,72,0.00,,,0.00,VWS V14.01,2013-05-13 10:22:00,
2013-05-13 03:27:00,58.7,50.1,27.95,West,261,6.0,12.0,73,0.00,,,0.00,VWS V14.01,2013-05-13 10:27:00,
2013-05-13 03:30:00,58.6,50.0,27.95,West,262,4.0,12.0,73,0.00,,,0.00,VWS V14.01,2013-05-13 10:30:00,
2013-05-13 03:32:00,58.5,49.9,27.95,West,266,3.0,13.0,73,0.00,,,0.00,VWS V14.01,2013-05-13 10:32:00,
2013-05-13 03:37:00,58.3,49.7,27.95,WSW,244,5.0,13.0,73,0.00,,,0.00,VWS V14.01,2013-05-13 10:37:00,
2013-05-13 03:42:00,58.2,49.6,27.95,West,266,6.0,13.0,73,0.00,,,0.00,VWS V14.01,2013-05-13 10:42:00,
2013-05-13 03:47:00,58.0,49.4,27.95,WSW,257,4.0,13.0,73,0.00,,,0.00,VWS V14.01,2013-05-13 10:47:00,
2013-05-13 03:52:00,57.8,49.2,27.95,West,262,5.0,13.0,73,0.00,,,0.00,VWS V14.01,2013-05-13 10:52:00,
2013-05-13 03:57:00,57.6,49.4,27.95,WSW,248,5.0,13.0,74,0.00,,,0.00,VWS V14.01,2013-05-13 10:57:00,
2013-05-13 04:00:00,57.6,49.4,27.95,WSW,252,4.0,13.0,74,0.00,,,0.00,VWS V14.01,2013-05-13 11:00:00,
2013-05-13 04:03:00,57.4,49.5,27.95,WSW,253,3.0,9.0,75,0.00,,,0.00,VWS V14.01,2013-05-13 11:03:00,
2013-05-13 04:08:00,57.3,49.5,27.95,West,260,4.0,9.0,75,0.00,,,0.00,VWS V14.01,2013-05-13 11:08:00,
2013-05-13 04:13:00,57.1,49.3,27.95,West,263,3.0,9.0,75,0.00,,,0.00,VWS V14.01,2013-05-13 11:13:00,
2013-05-13 04:18:00,57.2,49.4,27.95,WSW,258,2.0,9.0,75,0.00,,,0.00,VWS V14.01,2013-05-13 11:18:00,
2013-05-13 04:23:00,57.0,49.2,27.95,WSW,253,4.0,9.0,75,0.00,,,0.00,VWS V14.01,2013-05-13 11:23:00,
2013-05-13 04:28:00,57.0,49.2,27.95,West,265,4.0,9.0,75,0.00,,,0.00,VWS V14.01,2013-05-13 11:28:00,
2013-05-13 04:30:00,57.0,49.2,27.95,West,259,5.0,9.0,75,0.00,,,0.00,VWS V14.01,2013-05-13 11:30:00,
2013-05-13 04:33:00,57.1,49.3,27.96,WSW,253,5.0,6.0,75,0.00,,,0.00,VWS V14.01,2013-05-13 11:33:00,
2013-05-13 04:38:00,57.0,49.2,27.95,West,261,4.0,7.0,75,0.00,,,0.00,VWS V14.01,2013-05-13 11:38:00,
2013-05-13 04:43:00,57.0,49.2,27.95,WSW,256,3.0,9.0,75,0.00,,,0.00,VWS V14.01,2013-05-13 11:43:00,
2013-05-13 04:49:00,57.0,49.2,27.95,West,277,4.0,9.0,75,0.00,,,0.00,VWS V14.01,2013-05-13 11:49:00,
2013-05-13 04:54:00,57.0,48.8,27.95,WNW,299,1.0,9.0,74,0.00,,,0.00,VWS V14.01,2013-05-13 11:54:00,
2013-05-13 04:59:00,57.2,49.0,27.95,WSW,257,3.0,9.0,74,0.00,,,0.00,VWS V14.01,2013-05-13 11:59:00,
2013-05-13 05:00:00,57.1,48.9,27.95,WSW,257,3.0,9.0,74,0.00,,,0.00,VWS V14.01,2013-05-13 12:00:00,
2013-05-13 05:04:00,57.0,48.8,27.96,West,260,1.0,7.0,74,0.00,,,0.00,VWS V14.01,2013-05-13 12:04:00,
2013-05-13 05:09:00,56.8,48.6,27.95,West,265,4.0,8.0,74,0.00,,,0.00,VWS V14.01,2013-05-13 12:09:00,
2013-05-13 05:14:00,57.0,48.8,27.95,West,260,4.0,8.0,74,0.00,,,0.00,VWS V14.01,2013-05-13 12:14:00,
2013-05-13 05:19:00,57.0,48.8,27.95,West,264,8.0,11.0,74,0.00,,,0.00,VWS V14.01,2013-05-13 12:19:00,
2013-05-13 05:24:00,57.2,49.0,27.96,WSW,245,5.0,12.0,74,0.00,,,0.00,VWS V14.01,2013-05-13 12:24:00,
2013-05-13 05:30:00,57.3,48.7,27.96,WSW,250,8.0,8.0,73,0.00,,,0.00,VWS V14.01,2013-05-13 12:30:00,
2013-05-13 05:35:00,57.5,49.3,27.96,WSW,248,4.0,12.0,74,0.00,,,0.00,VWS V14.01,2013-05-13 12:35:00,
2013-05-13 05:40:00,57.6,49.0,27.96,West,259,5.0,12.0,73,0.00,,,0.00,VWS V14.01,2013-05-13 12:40:00,
2013-05-13 05:45:00,57.7,49.1,27.96,WSW,253,5.0,12.0,73,0.00,,,0.00,VWS V14.01,2013-05-13 12:45:00,
2013-05-13 05:50:00,57.9,49.3,27.96,West,265,5.0,12.0,73,0.00,,,0.00,VWS V14.01,2013-05-13 12:50:00,
2013-05-13 05:55:00,58.0,49.0,27.96,West,272,5.0,12.0,72,0.00,,,0.00,VWS V14.01,2013-05-13 12:55:00,
2013-05-13 06:00:00,58.2,49.2,27.96,SW,224,3.0,6.0,72,0.00,,,0.00,VWS V14.01,2013-05-13 13:00:00,
2013-05-13 06:05:00,58.0,49.0,27.96,WSW,239,2.0,9.0,72,0.00,,,0.00,VWS V14.01,2013-05-13 13:05:00,
2013-05-13 06:11:00,57.9,48.9,27.96,WSW,258,3.0,9.0,72,0.00,,,0.00,VWS V14.01,2013-05-13 13:11:00,
2013-05-13 06:16:00,57.7,49.1,27.97,WSW,243,0.0,9.0,73,0.00,,,0.00,VWS V14.01,2013-05-13 13:16:00,
2013-05-13 06:21:00,57.8,49.2,27.97,WSW,252,3.0,11.0,73,0.00,,,0.00,VWS V14.01,2013-05-13 13:21:00,
2013-05-13 06:26:00,57.8,48.8,27.97,SW,229,3.0,11.0,72,0.00,,,0.00,VWS V14.01,2013-05-13 13:26:00,
2013-05-13 06:30:00,57.8,49.2,27.97,SW,235,10.0,11.0,73,0.00,,,0.00,VWS V14.01,2013-05-13 13:30:00,
2013-05-13 06:31:00,57.7,49.1,27.96,WSW,252,6.0,11.0,73,0.00,,,0.00,VWS V14.01,2013-05-13 13:31:00,
2013-05-13 06:36:00,57.6,49.4,27.96,SW,234,4.0,11.0,74,0.00,,,0.00,VWS V14.01,2013-05-13 13:36:00,
2013-05-13 06:41:00,57.6,49.4,27.96,WSW,250,6.0,11.0,74,0.00,,,0.00,VWS V14.01,2013-05-13 13:41:00,
2013-05-13 06:46:00,57.6,49.4,27.96,WSW,239,4.0,11.0,74,0.00,,,0.00,VWS V14.01,2013-05-13 13:46:00,
2013-05-13 06:51:00,57.7,49.1,27.95,WSW,249,8.0,12.0,73,0.00,,,0.00,VWS V14.01,2013-05-13 13:51:00,
2013-05-13 06:57:00,57.8,49.2,27.95,WSW,252,4.0,12.0,73,0.00,,,0.00,VWS V14.01,2013-05-13 13:57:00,
2013-05-13 07:00:00,57.6,49.0,27.96,WSW,238,7.0,12.0,73,0.00,,,0.00,VWS V14.01,2013-05-13 14:00:00,
2013-05-13 07:02:00,57.7,49.5,27.96,WSW,242,3.0,7.0,74,0.00,,,0.00,VWS V14.01,2013-05-13 14:02:00,
2013-05-13 07:07:00,57.9,49.3,27.95,SW,230,0.0,8.0,73,0.00,,,0.00,VWS V14.01,2013-05-13 14:07:00,
2013-05-13 07:12:00,58.0,49.4,27.96,West,260,0.0,8.0,73,0.00,,,0.00,VWS V14.01,2013-05-13 14:12:00,
2013-05-13 07:17:00,58.2,49.6,27.96,West,268,0.0,8.0,73,0.00,,,0.00,VWS V14.01,2013-05-13 14:17:00,
2013-05-13 07:22:00,58.5,49.5,27.97,West,262,0.0,8.0,72,0.00,,,0.00,VWS V14.01,2013-05-13 14:22:00,
2013-05-13 07:27:00,58.9,49.9,27.97,WNW,295,0.0,8.0,72,0.00,,,0.00,VWS V14.01,2013-05-13 14:27:00,
2013-05-13 07:30:00,59.0,50.4,27.97,WNW,295,0.0,8.0,73,0.00,,,0.00,VWS V14.01,2013-05-13 14:30:00,
2013-05-13 07:33:00,59.1,50.1,27.97,WNW,295,0.0,0.0,72,0.00,,,0.00,VWS V14.01,2013-05-13 14:33:00,
2013-05-13 07:38:00,59.3,50.3,27.97,ENE,70,0.0,0.0,72,0.00,,,0.00,VWS V14.01,2013-05-13 14:38:00,
2013-05-13 07:43:00,59.3,49.5,27.97,ENE,72,0.0,0.0,70,0.00,,,0.00,VWS V14.01,2013-05-13 14:43:00,
2013-05-13 07:48:00,59.4,49.6,27.97,West,277,0.0,3.0,70,0.00,,,0.00,VWS V14.01,2013-05-13 14:48:00,
2013-05-13 07:53:00,59.4,49.6,27.97,SSW,201,0.0,7.0,70,0.00,,,0.00,VWS V14.01,2013-05-13 14:53:00,
2013-05-13 07:58:00,59.4,49.6,27.97,South,191,3.0,7.0,70,0.00,,,0.00,VWS V14.01,2013-05-13 14:58:00,
2013-05-13 08:00:00,59.4,50.0,27.97,SW,221,4.0,7.0,71,0.00,,,0.00,VWS V14.01,2013-05-13 15:00:00,
2013-05-13 08:03:00,59.4,50.0,27.96,SSE,160,0.0,4.0,71,0.00,,,0.00,VWS V14.01,2013-05-13 15:03:00,
2013-05-13 08:08:00,59.4,50.0,27.97,SSE,157,0.0,6.0,71,0.00,,,0.00,VWS V14.01,2013-05-13 15:08:00,
2013-05-13 08:13:00,59.3,49.9,27.97,SE,129,3.0,6.0,71,0.00,,,0.00,VWS V14.01,2013-05-13 15:13:00,
2013-05-13 08:19:00,59.3,49.9,27.96,SSE,150,0.0,6.0,71,0.00,,,0.00,VWS V14.01,2013-05-13 15:19:00,
2013-05-13 08:24:00,59.4,50.0,27.96,SW,229,3.0,7.0,71,0.00,,,0.00,VWS V14.01,2013-05-13 15:24:00,
2013-05-13 08:29:00,59.4,50.0,27.97,WSW,248,0.0,7.0,71,0.00,,,0.00,VWS V14.01,2013-05-13 15:29:00,
2013-05-13 08:30:00,59.4,50.0,27.96,WSW,248,0.0,7.0,71,0.00,,,0.00,VWS V14.01,2013-05-13 15:30:00,
2013-05-13 08:34:00,59.4,50.4,27.97,WSW,247,0.0,1.0,72,0.00,,,0.00,VWS V14.01,2013-05-13 15:34:00,
2013-05-13 08:39:00,59.5,50.1,27.96,WSW,246,1.0,4.0,71,0.00,,,0.00,VWS V14.01,2013-05-13 15:39:00,
2013-05-13 08:44:00,59.6,50.2,27.96,WSW,240,0.0,4.0,71,0.00,,,0.00,VWS V14.01,2013-05-13 15:44:00,
2013-05-13 08:49:00,59.7,50.7,27.96,SSE,166,3.0,5.0,72,0.00,,,0.00,VWS V14.01,2013-05-13 15:49:00,
2013-05-13 08:54:00,59.9,50.5,27.96,SSW,209,0.0,5.0,71,0.00,,,0.00,VWS V14.01,2013-05-13 15:54:00,
2013-05-13 09:00:00,60.0,51.0,27.96,SW,225,1.0,2.0,72,0.00,,,0.00,VWS V14.01,2013-05-13 16:00:00,
2013-05-13 09:05:00,59.9,50.5,27.96,SW,219,0.0,7.0,71,0.00,,,0.00,VWS V14.01,2013-05-13 16:05:00,
2013-05-13 09:10:00,60.0,51.0,27.96,SW,222,0.0,7.0,72,0.00,,,0.00,VWS V14.01,2013-05-13 16:10:00,
2013-05-13 09:15:00,60.3,50.9,27.95,SW,215,1.0,9.0,71,0.00,,,0.00,VWS V14.01,2013-05-13 16:15:00,
2013-05-13 09:20:00,60.5,51.4,27.95,SW,224,3.0,9.0,72,0.00,,,0.00,VWS V14.01,2013-05-13 16:20:00,
2013-05-13 09:25:00,60.8,51.3,27.96,SW,223,4.0,9.0,71,0.00,,,0.00,VWS V14.01,2013-05-13 16:25:00,
2013-05-13 09:30:00,61.0,51.5,27.95,WSW,237,0.0,5.0,71,0.00,,,0.00,VWS V14.01,2013-05-13 16:30:00,
2013-05-13 09:36:00,61.1,51.2,27.94,WSW,244,1.0,6.0,70,0.00,,,0.00,VWS V14.01,2013-05-13 16:36:00,
2013-05-13 09:41:00,61.4,51.5,27.95,SW,224,2.0,6.0,70,0.00,,,0.00,VWS V14.01,2013-05-13 16:41:00,
2013-05-13 09:46:00,61.6,51.7,27.95,SW,228,1.0,7.0,70,0.00,,,0.00,VWS V14.01,2013-05-13 16:46:00,
2013-05-13 09:51:00,61.9,51.6,27.95,SW,218,4.0,9.0,69,0.00,,,0.00,VWS V14.01,2013-05-13 16:51:00,
2013-05-13 09:56:00,62.1,52.2,27.94,SW,217,3.0,9.0,70,0.00,,,0.00,VWS V14.01,2013-05-13 16:56:00,
2013-05-13 10:00:00,62.4,52.1,27.94,SW,224,4.0,9.0,69,0.00,,,0.00,VWS V14.01,2013-05-13 17:00:00,
2013-05-13 10:01:00,62.5,52.2,27.95,WSW,240,2.0,6.0,69,0.00,,,0.00,VWS V14.01,2013-05-13 17:01:00,
2013-05-13 10:06:00,63.0,52.7,27.94,SSW,202,4.0,7.0,69,0.00,,,0.00,VWS V14.01,2013-05-13 17:06:00,
2013-05-13 10:11:00,63.5,52.4,27.95,SSW,213,6.0,10.0,67,0.00,,,0.00,VWS V14.01,2013-05-13 17:11:00,
2013-05-13 10:17:00,63.7,52.1,27.94,SSW,213,3.0,10.0,66,0.00,,,0.00,VWS V14.01,2013-05-13 17:17:00,
2013-05-13 10:22:00,64.0,51.6,27.95,SSW,208,0.0,10.0,64,0.00,,,0.00,VWS V14.01,2013-05-13 17:22:00,
2013-05-13 10:27:00,64.1,52.1,27.95,SSW,208,4.0,10.0,65,0.00,,,0.00,VWS V14.01,2013-05-13 17:27:00,
2013-05-13 10:30:00,64.1,51.7,27.95,SW,223,0.0,10.0,64,0.00,,,0.00,VWS V14.01,2013-05-13 17:30:00,
2013-05-13 10:32:00,64.1,51.7,27.95,SW,220,3.0,6.0,64,0.00,,,0.00,VWS V14.01,2013-05-13 17:32:00,
2013-05-13 10:37:00,64.1,51.3,27.95,WSW,245,3.0,7.0,63,0.00,,,0.00,VWS V14.01,2013-05-13 17:37:00,
2013-05-13 10:42:00,64.3,50.6,27.95,WSW,240,3.0,7.0,61,0.00,,,0.00,VWS V14.01,2013-05-13 17:42:00,
2013-05-13 10:47:00,64.3,50.6,27.95,SW,223,3.0,7.0,61,0.00,,,0.00,VWS V14.01,2013-05-13 17:47:00,
2013-05-13 10:52:00,64.3,51.9,27.94,WSW,247,0.0,7.0,64,0.00,,,0.00,VWS V14.01,2013-05-13 17:52:00,
2013-05-13 10:58:00,64.3,51.9,27.94,WSW,247,0.0,7.0,64,0.00,,,0.00,VWS V14.01,2013-05-13 17:58:00,
2013-05-13 11:00:00,64.4,51.1,27.94,WSW,248,0.0,7.0,62,0.00,,,0.00,VWS V14.01,2013-05-13 18:00:00,
2013-05-13 11:03:00,64.6,51.3,27.94,WSW,251,1.0,3.0,62,0.00,,,0.00,VWS V14.01,2013-05-13 18:03:00,
2013-05-13 11:08:00,65.1,52.6,27.94,WSW,255,2.0,3.0,64,0.00,,,0.00,VWS V14.01,2013-05-13 18:08:00,
2013-05-13 11:13:00,65.2,51.4,27.94,SW,222,2.0,9.0,61,0.00,,,0.00,VWS V14.01,2013-05-13 18:13:00,
2013-05-13 11:18:00,65.4,51.6,27.93,SW,220,0.0,9.0,61,0.00,,,0.00,VWS V14.01,2013-05-13 18:18:00,
2013-05-13 11:23:00,65.4,51.6,27.93,SW,218,2.0,9.0,61,0.00,,,0.00,VWS V14.01,2013-05-13 18:23:00,
2013-05-13 11:28:00,65.5,51.7,27.93,SW,233,0.0,9.0,61,0.00,,,0.00,VWS V14.01,2013-05-13 18:28:00,
2013-05-13 11:30:00,65.5,52.2,27.93,SW,233,0.0,9.0,62,0.00,,,0.00,VWS V14.01,2013-05-13 18:30:00,
2013-05-13 11:34:00,65.6,51.8,27.93,SW,233,0.0,5.0,61,0.00,,,0.00,VWS V14.01,2013-05-13 18:34:00,
2013-05-13 11:39:00,65.5,51.3,27.93,SSW,209,2.0,5.0,60,0.00,,,0.00,VWS V14.01,2013-05-13 18:39:00,
2013-05-13 11:44:00,65.2,50.5,27.93,SW,223,1.0,6.0,59,0.00,,,0.00,VWS V14.01,2013-05-13 18:44:00,
2013-05-13 11:49:00,65.1,50.4,27.92,SW,224,0.0,6.0,59,0.00,,,0.00,VWS V14.01,2013-05-13 18:49:00,
2013-05-13 11:54:00,64.9,50.2,27.92,SW,228,0.0,6.0,59,0.00,,,0.00,VWS V14.01,2013-05-13 18:54:00,
2013-05-13 11:59:00,65.1,51.3,27.93,SW,230,0.0,6.0,61,0.00,,,0.00,VWS V14.01,2013-05-13 18:59:00,
2013-05-13 12:00:00,65.1,51.3,27.93,SW,231,0.0,6.0,61,0.00,,,0.00,VWS V14.01,2013-05-13 19:00:00,
2013-05-13 12:04:00,64.9,51.2,27.92,SW,232,0.0,0.0,61,0.00,,,0.00,VWS V14.01,2013-05-13 19:04:00,
2013-05-13 12:09:00,64.6,52.6,27.92,WSW,237,0.0,3.0,65,0.00,,,0.00,VWS V14.01,2013-05-13 19:09:00,
2013-05-13 12:14:00,64.1,52.1,27.92,WSW,245,0.0,4.0,65,0.00,,,0.00,VWS V14.01,2013-05-13 19:14:00,
2013-05-13 12:20:00,63.6,52.0,27.92,WSW,248,2.0,4.0,66,0.00,,,0.00,VWS V14.01,2013-05-13 19:20:00,
2013-05-13 12:25:00,62.8,52.5,27.92,West,270,0.0,5.0,69,0.00,,,0.00,VWS V14.01,2013-05-13 19:25:00,
2013-05-13 12:30:00,62.2,52.3,27.92,WNW,286,0.0,0.0,70,0.00,,,0.00,VWS V14.01,2013-05-13 19:30:00,
2013-05-13 12:35:00,61.7,53.3,27.92,WNW,287,3.0,3.0,74,0.00,,,0.00,VWS V14.01,2013-05-13 19:35:00,
2013-05-13 12:40:00,61.1,54.2,27.92,WNW,284,0.0,3.0,78,0.01,,,0.01,VWS V14.01,2013-05-13 19:40:00,
2013-05-13 12:45:00,60.3,54.1,27.92,West,278,0.0,6.0,80,0.01,,,0.01,VWS V14.01,2013-05-13 19:45:00,
2013-05-13 12:50:00,59.9,54.4,27.92,West,278,0.0,6.0,82,0.02,,,0.02,VWS V14.01,2013-05-13 19:50:00,
2013-05-13 12:55:00,59.1,54.3,27.93,West,270,3.0,6.0,84,0.03,,,0.03,VWS V14.01,2013-05-13 19:55:00,
2013-05-13 13:00:00,58.8,54.0,27.93,West,268,0.0,6.0,84,0.03,,,0.03,VWS V14.01,2013-05-13 20:00:00,
2013-05-13 13:01:00,58.6,53.8,27.93,West,271,5.0,5.0,84,0.03,,,0.03,VWS V14.01,2013-05-13 20:01:00,
2013-05-13 13:06:00,58.2,53.7,27.92,West,277,0.0,6.0,85,0.04,,,0.04,VWS V14.01,2013-05-13 20:06:00,
2013-05-13 13:11:00,58.0,54.5,27.92,WNW,295,0.0,6.0,88,0.05,,,0.05,VWS V14.01,2013-05-13 20:11:00,
2013-05-13 13:16:00,57.7,54.5,27.92,WNW,293,0.0,6.0,89,0.06,,,0.00,VWS V14.01,2013-05-13 20:16:00,
2013-05-13 13:21:00,57.6,54.4,27.92,WNW,292,0.0,6.0,89,0.07,,,0.07,VWS V14.01,2013-05-13 20:21:00,
2013-05-13 13:26:00,57.3,54.1,27.93,WNW,290,0.0,6.0,89,0.08,,,0.08,VWS V14.01,2013-05-13 20:26:00,
2013-05-13 13:30:00,57.0,53.8,27.92,WNW,282,0.0,6.0,89,0.08,,,0.08,VWS V14.01,2013-05-13 20:30:00,
2013-05-13 13:31:00,57.0,54.1,27.92,WNW,283,0.0,3.0,90,0.08,,,0.08,VWS V14.01,2013-05-13 20:31:00,
2013-05-13 13:36:00,56.3,53.1,27.92,WNW,288,0.0,5.0,89,0.09,,,0.09,VWS V14.01,2013-05-13 20:36:00,
2013-05-13 13:41:00,55.8,52.9,27.93,WNW,283,4.0,5.0,90,0.09,,,0.09,VWS V14.01,2013-05-13 20:41:00,
2013-05-13 13:47:00,55.5,52.6,27.93,WNW,295,0.0,6.0,90,0.09,,,0.09,VWS V14.01,2013-05-13 20:47:00,
2013-05-13 13:52:00,55.0,52.1,27.93,WNW,289,0.0,6.0,90,0.10,,,0.10,VWS V14.01,2013-05-13 20:52:00,
2013-05-13 13:57:00,54.7,51.8,27.92,West,277,0.0,6.0,90,0.11,,,0.11,VWS V14.01,2013-05-13 20:57:00,
2013-05-13 14:00:00,54.6,51.7,27.94,West,278,6.0,8.0,90,0.11,,,0.11,VWS V14.01,2013-05-13 21:00:00,
2013-05-13 14:02:00,54.5,51.6,27.94,WNW,291,0.0,6.0,90,0.08,,,0.11,VWS V14.01,2013-05-13 21:02:00,
2013-05-13 14:07:00,54.1,51.2,27.96,WNW,294,5.0,9.0,90,0.09,,,0.12,VWS V14.01,2013-05-13 21:07:00,
2013-05-13 14:12:00,53.6,51.0,27.94,WNW,300,1.0,9.0,91,0.09,,,0.12,VWS V14.01,2013-05-13 21:12:00,
2013-05-13 14:17:00,53.5,50.9,27.93,WNW,289,0.0,9.0,91,0.10,,,0.13,VWS V14.01,2013-05-13 21:17:00,
2013-05-13 14:22:00,53.3,50.7,27.94,WNW,282,3.0,9.0,91,0.10,,,0.13,VWS V14.01,2013-05-13 21:22:00,
2013-05-13 14:27:00,53.2,50.7,27.93,WNW,297,1.0,11.0,91,0.10,,,0.13,VWS V14.01,2013-05-13 21:27:00,
2013-05-13 14:30:00,53.0,50.7,27.93,WNW,290,2.0,11.0,92,0.11,,,0.14,VWS V14.01,2013-05-13 21:30:00,
2013-05-13 14:32:00,53.0,50.5,27.93,WNW,290,0.0,7.0,91,0.06,,,0.14,VWS V14.01,2013-05-13 21:32:00,
2013-05-13 14:37:00,53.2,50.9,27.94,WNW,288,0.0,7.0,92,0.06,,,0.14,VWS V14.01,2013-05-13 21:37:00,
2013-05-13 14:42:00,53.2,50.9,27.94,WNW,298,0.0,7.0,92,0.07,,,0.15,VWS V14.01,2013-05-13 21:42:00,
2013-05-13 14:47:00,53.0,50.7,27.94,WNW,285,0.0,7.0,92,0.08,,,0.16,VWS V14.01,2013-05-13 21:47:00,
2013-05-13 14:52:00,53.2,51.2,27.93,West,272,0.0,7.0,93,0.09,,,0.17,VWS V14.01,2013-05-13 21:52:00,
2013-05-13 14:57:00,53.2,50.9,27.92,West,269,0.0,7.0,92,0.10,,,0.18,VWS V14.01,2013-05-13 21:57:00,
2013-05-13 15:00:00,53.3,51.3,27.92,West,265,0.0,7.0,93,0.10,,,0.18,VWS V14.01,2013-05-13 22:00:00,
2013-05-13 15:02:00,53.4,51.4,27.92,West,264,0.0,1.0,93,0.07,,,0.18,VWS V14.01,2013-05-13 22:02:00,
2013-05-13 15:07:00,53.3,51.3,27.92,West,261,0.0,1.0,93,0.07,,,0.18,VWS V14.01,2013-05-13 22:07:00,
2013-05-13 15:12:00,53.5,51.5,27.93,West,262,0.0,1.0,93,0.08,,,0.19,VWS V14.01,2013-05-13 22:12:00,
2013-05-13 15:17:00,53.4,51.4,27.93,West,266,0.0,1.0,93,0.09,,,0.20,VWS V14.01,2013-05-13 22:17:00,
2013-05-13 15:22:00,53.1,51.1,27.93,West,268,0.0,2.0,93,0.11,,,0.22,VWS V14.01,2013-05-13 22:22:00,
2013-05-13 15:28:00,52.9,50.9,27.93,West,267,0.0,2.0,93,0.12,,,0.23,VWS V14.01,2013-05-13 22:28:00,
2013-05-13 15:30:00,52.9,50.6,27.93,West,266,0.0,2.0,92,0.13,,,0.24,VWS V14.01,2013-05-13 22:30:00,
2013-05-13 15:33:00,52.8,50.5,27.93,West,268,0.0,0.0,92,0.10,,,0.24,VWS V14.01,2013-05-13 22:33:00,
2013-05-13 15:38:00,52.6,50.3,27.94,West,269,0.0,0.0,92,0.11,,,0.25,VWS V14.01,2013-05-13 22:38:00,
2013-05-13 15:43:00,52.5,50.5,27.94,West,269,0.0,3.0,93,0.12,,,0.26,VWS V14.01,2013-05-13 22:43:00,
2013-05-13 15:48:00,52.3,50.6,27.94,West,270,0.0,3.0,94,0.13,,,0.27,VWS V14.01,2013-05-13 22:48:00,
2013-05-13 15:53:00,52.2,50.2,27.94,West,263,0.0,4.0,93,0.14,,,0.28,VWS V14.01,2013-05-13 22:53:00,
2013-05-13 15:58:00,52.0,49.8,27.94,WSW,246,0.0,4.0,92,0.15,,,0.29,VWS V14.01,2013-05-13 22:58:00,
2013-05-13 16:00:00,52.0,49.8,27.94,WSW,248,0.0,4.0,92,0.15,,,0.29,VWS V14.01,2013-05-13 23:00:00,
2013-05-13 16:03:00,52.0,49.8,27.94,West,261,0.0,0.0,92,0.12,,,0.30,VWS V14.01,2013-05-13 23:03:00,
2013-05-13 16:08:00,52.0,49.8,27.94,WSW,257,2.0,5.0,92,0.13,,,0.31,VWS V14.01,2013-05-13 23:08:00,
2013-05-13 16:13:00,51.9,49.7,27.94,West,260,5.0,5.0,92,0.14,,,0.32,VWS V14.01,2013-05-13 23:13:00,
2013-05-13 16:18:00,51.9,49.7,27.92,South,180,7.0,7.0,92,0.16,,,0.34,VWS V14.01,2013-05-13 23:18:00,
2013-05-13 16:23:00,51.9,49.9,27.91,SSW,213,1.0,11.0,93,0.17,,,0.35,VWS V14.01,2013-05-13 23:23:00,
2013-05-13 16:28:00,51.9,49.9,27.93,SW,236,4.0,11.0,93,0.18,,,0.36,VWS V14.01,2013-05-13 23:28:00,
2013-05-13 16:30:00,51.9,49.9,27.92,SSW,197,5.0,11.0,93,0.18,,,0.36,VWS V14.01,2013-05-13 23:30:00,
2013-05-13 16:33:00,51.9,49.9,27.92,WSW,248,0.0,6.0,93,0.12,,,0.36,VWS V14.01,2013-05-13 23:33:00,
2013-05-13 16:38:00,52.0,50.3,27.91,WSW,255,0.0,7.0,94,0.12,,,0.36,VWS V14.01,2013-05-13 23:38:00,
2013-05-13 16:43:00,52.0,50.3,27.92,WNW,287,5.0,7.0,94,0.12,,,0.36,VWS V14.01,2013-05-13 23:43:00,
2013-05-13 16:48:00,52.2,50.5,27.92,SW,217,1.0,11.0,94,0.12,,,0.36,VWS V14.01,2013-05-13 23:48:00,
2013-05-13 16:53:00,52.3,50.9,27.91,West,275,2.0,11.0,95,0.12,,,0.36,VWS V14.01,2013-05-13 23:53:00,
2013-05-13 16:58:00,52.5,50.8,27.92,West,266,2.0,11.0,94,0.12,,,0.36,VWS V14.01,2013-05-13 23:58:00,
2013-05-13 17:00:00,52.6,51.2,27.92,WSW,244,4.0,11.0,95,0.12,,,0.36,VWS V14.01,2013-05-14 00:00:00,
2013-05-13 17:03:00,52.8,51.4,27.92,WSW,237,4.0,8.0,95,0.07,,,0.36,VWS V14.01,2013-05-14 00:03:00,
2013-05-13 17:08:00,53.5,52.1,27.92,West,261,5.0,9.0,95,0.07,,,0.36,VWS V14.01,2013-05-14 00:08:00,
2013-05-13 17:13:00,53.9,52.2,27.92,WSW,254,3.0,14.0,94,0.07,,,0.36,VWS V14.01,2013-05-14 00:13:00,
2013-05-13 17:18:00,54.2,52.2,27.93,West,266,7.0,14.0,93,0.07,,,0.36,VWS V14.01,2013-05-14 00:18:00,
2013-05-13 17:23:00,54.2,51.9,27.93,West,265,3.0,14.0,92,0.07,,,0.36,VWS V14.01,2013-05-14 00:23:00,
2013-05-13 17:28:00,54.3,51.7,27.92,WSW,246,11.0,14.0,91,0.07,,,0.36,VWS V14.01,2013-05-14 00:28:00,
2013-05-13 17:30:00,54.2,51.0,27.92,SW,223,10.0,14.0,89,0.07,,,0.36,VWS V14.01,2013-05-14 00:30:00,
2013-05-13 17:33:00,54.2,50.7,27.93,West,265,3.0,12.0,88,0.00,,,0.36,VWS V14.01,2013-05-14 00:33:00,
2013-05-13 17:38:00,53.9,49.8,27.93,WSW,241,9.0,13.0,86,0.00,,,0.36,VWS V14.01,2013-05-14 00:38:00,
2013-05-13 17:43:00,54.1,50.0,27.92,SW,220,3.0,13.0,86,0.00,,,0.36,VWS V14.01,2013-05-14 00:43:00,
2013-05-13 17:48:00,53.9,49.5,27.92,West,274,2.0,13.0,85,0.00,,,0.36,VWS V14.01,2013-05-14 00:48:00,
2013-05-13 17:53:00,53.9,49.5,27.92,WSW,257,4.0,13.0,85,0.00,,,0.36,VWS V14.01,2013-05-14 00:53:00,
2013-05-13 17:59:00,54.1,49.7,27.93,SW,229,8.0,13.0,85,0.00,,,0.36,VWS V14.01,2013-05-14 00:59:00,
2013-05-13 18:00:00,54.0,49.6,27.92,WNW,285,3.0,13.0,85,0.00,,,0.36,VWS V14.01,2013-05-14 01:00:00,
2013-05-13 18:04:00,53.9,49.2,27.92,WSW,247,1.0,15.0,84,0.00,,,0.36,VWS V14.01,2013-05-14 01:04:00,
2013-05-13 18:09:00,53.9,49.2,27.92,WSW,256,7.0,15.0,84,0.00,,,0.36,VWS V14.01,2013-05-14 01:09:00,
2013-05-13 18:14:00,53.6,48.9,27.92,SW,230,10.0,15.0,84,0.00,,,0.36,VWS V14.01,2013-05-14 01:14:00,
2013-05-13 18:19:00,53.6,48.6,27.92,SSW,211,7.0,19.0,83,0.00,,,0.36,VWS V14.01,2013-05-14 01:19:00,
2013-05-13 18:24:00,53.7,49.0,27.91,WSW,238,7.0,19.0,84,0.00,,,0.36,VWS V14.01,2013-05-14 01:24:00,
2013-05-13 18:29:00,53.9,49.2,27.92,WSW,240,5.0,19.0,84,0.00,,,0.36,VWS V14.01,2013-05-14 01:29:00,
2013-05-13 18:30:00,53.8,49.1,27.92,WSW,251,5.0,19.0,84,0.00,,,0.36,VWS V14.01,2013-05-14 01:30:00,
2013-05-13 18:34:00,53.8,49.1,27.92,West,266,4.0,17.0,84,0.00,,,0.36,VWS V14.01,2013-05-14 01:34:00,
2013-05-13 18:39:00,53.8,49.1,27.92,West,262,11.0,17.0,84,0.00,,,0.36,VWS V14.01,2013-05-14 01:39:00,
2013-05-13 18:44:00,53.8,49.1,27.92,WSW,257,10.0,17.0,84,0.00,,,0.36,VWS V14.01,2013-05-14 01:44:00,
2013-05-13 18:49:00,53.7,49.0,27.92,West,273,1.0,17.0,84,0.00,,,0.36,VWS V14.01,2013-05-14 01:49:00,
2013-05-13 18:54:00,53.9,49.5,27.91,WSW,253,5.0,17.0,85,0.00,,,0.36,VWS V14.01,2013-05-14 01:54:00,
2013-05-13 18:59:00,53.8,49.1,27.91,SW,227,2.0,17.0,84,0.00,,,0.36,VWS V14.01,2013-05-14 01:59:00,
2013-05-13 19:00:00,53.9,49.2,27.91,SW,229,4.0,17.0,84,0.00,,,0.36,VWS V14.01,2013-05-14 02:00:00,
2013-05-13 19:04:00,53.8,49.1,27.91,SW,223,12.0,18.0,84,0.00,,,0.36,VWS V14.01,2013-05-14 02:04:00,
2013-05-13 19:09:00,53.8,49.4,27.91,SW,229,7.0,18.0,85,0.00,,,0.36,VWS V14.01,2013-05-14 02:09:00,
2013-05-13 19:14:00,53.8,49.4,27.90,WSW,239,7.0,18.0,85,0.00,,,0.36,VWS V14.01,2013-05-14 02:14:00,
2013-05-13 19:19:00,53.6,49.2,27.91,SW,228,7.0,18.0,85,0.00,,,0.36,VWS V14.01,2013-05-14 02:19:00,
2013-05-13 19:24:00,53.6,49.2,27.90,SW,224,7.0,18.0,85,0.00,,,0.36,VWS V14.01,2013-05-14 02:24:00,
2013-05-13 19:29:00,53.7,49.3,27.90,WSW,239,8.0,18.0,85,0.00,,,0.36,VWS V14.01,2013-05-14 02:29:00,
2013-05-13 19:30:00,53.7,49.3,27.91,WSW,239,8.0,18.0,85,0.00,,,0.36,VWS V14.01,2013-05-14 02:30:00,
2013-05-13 19:34:00,53.6,49.2,27.91,SW,233,7.0,13.0,85,0.00,,,0.36,VWS V14.01,2013-05-14 02:34:00,
2013-05-13 19:39:00,53.6,49.2,27.91,SW,224,11.0,16.0,85,0.00,,,0.36,VWS V14.01,2013-05-14 02:39:00,
2013-05-13 19:44:00,53.6,49.5,27.91,WSW,237,8.0,17.0,86,0.00,,,0.36,VWS V14.01,2013-05-14 02:44:00,
2013-05-13 19:49:00,53.6,49.8,27.91,SSW,211,10.0,17.0,87,0.00,,,0.36,VWS V14.01,2013-05-14 02:49:00,
2013-05-13 19:54:00,53.7,49.9,27.92,SW,221,4.0,17.0,87,0.00,,,0.36,VWS V14.01,2013-05-14 02:54:00,
2013-05-13 19:59:00,53.7,49.9,27.91,WSW,245,3.0,17.0,87,0.00,,,0.36,VWS V14.01,2013-05-14 02:59:00,
2013-05-13 20:00:00,53.7,49.9,27.91,WSW,254,2.0,17.0,87,0.00,,,0.36,VWS V14.01,2013-05-14 03:00:00,
2013-05-13 20:04:00,53.8,50.0,27.92,SW,229,2.0,9.0,87,0.00,,,0.36,VWS V14.01,2013-05-14 03:04:00,
2013-05-13 20:09:00,53.8,50.0,27.92,WSW,240,6.0,10.0,87,0.00,,,0.36,VWS V14.01,2013-05-14 03:09:00,
2013-05-13 20:14:00,53.7,50.2,27.92,SW,232,7.0,11.0,88,0.00,,,0.36,VWS V14.01,2013-05-14 03:14:00,
2013-05-13 20:19:00,53.7,49.9,27.92,WSW,251,4.0,11.0,87,0.00,,,0.36,VWS V14.01,2013-05-14 03:19:00,
2013-05-13 20:24:00,53.9,50.1,27.92,SW,234,7.0,13.0,87,0.00,,,0.36,VWS V14.01,2013-05-14 03:24:00,
2013-05-13 20:29:00,53.9,50.1,27.93,SW,225,7.0,7.0,87,0.00,,,0.36,VWS V14.01,2013-05-14 03:29:00,
2013-05-13 20:30:00,53.9,50.1,27.92,SW,215,7.0,13.0,87,0.00,,,0.36,VWS V14.01,2013-05-14 03:30:00,
2013-05-13 20:35:00,54.0,50.2,27.93,West,266,14.0,14.0,87,0.00,,,0.36,VWS V14.01,2013-05-14 03:35:00,
2013-05-13 20:40:00,54.2,49.8,27.93,WSW,251,6.0,14.0,85,0.00,,,0.36,VWS V14.01,2013-05-14 03:40:00,
2013-05-13 20:45:00,54.6,49.9,27.93,WSW,258,7.0,16.0,84,0.00,,,0.36,VWS V14.01,2013-05-14 03:45:00,
2013-05-13 20:50:00,54.8,49.4,27.94,West,263,4.0,18.0,82,0.00,,,0.36,VWS V14.01,2013-05-14 03:50:00,
2013-05-13 20:55:00,54.9,49.5,27.94,West,260,10.0,18.0,82,0.00,,,0.36,VWS V14.01,2013-05-14 03:55:00,
2013-05-13 21:00:00,55.1,49.0,27.94,SW,226,5.0,7.0,80,0.00,,,0.36,VWS V14.01,2013-05-14 04:00:00,
2013-05-13 21:01:00,55.1,49.4,27.95,West,260,2.0,7.0,81,0.00,,,0.36,VWS V14.01,2013-05-14 04:01:00,
2013-05-13 21:02:00,55.0,49.3,27.95,WSW,237,2.0,9.0,81,0.00,,,0.36,VWS V14.01,2013-05-14 04:02:00,
2013-05-13 21:03:00,55.1,49.0,27.95,WSW,252,6.0,9.0,80,0.00,,,0.36,VWS V14.01,2013-05-14 04:03:00,
2013-05-13 21:04:00,54.9,48.9,27.94,WSW,243,3.0,9.0,80,0.00,,,0.36,VWS V14.01,2013-05-14 04:04:00,
2013-05-13 21:09:00,54.9,48.9,27.94,SW,224,4.0,11.0,80,0.00,,,0.36,VWS V14.01,2013-05-14 04:09:00,
2013-05-13 21:14:00,55.1,48.0,27.95,WSW,246,3.0,11.0,77,0.00,,,0.36,VWS V14.01,2013-05-14 04:14:00,
2013-05-13 21:19:00,55.2,47.8,27.96,West,262,7.0,11.0,76,0.00,,,0.36,VWS V14.01,2013-05-14 04:19:00,
2013-05-13 21:24:00,55.1,47.7,27.95,WSW,257,3.0,11.0,76,0.00,,,0.36,VWS V14.01,2013-05-14 04:24:00,
2013-05-13 21:29:00,55.1,48.0,27.95,SW,222,8.0,11.0,77,0.00,,,0.36,VWS V14.01,2013-05-14 04:29:00,
2013-05-13 21:30:00,55.1,48.0,27.95,SW,222,8.0,11.0,77,0.00,,,0.36,VWS V14.01,2013-05-14 04:30:00,
2013-05-13 21:35:00,55.1,47.7,27.96,SW,226,3.0,8.0,76,0.00,,,0.36,VWS V14.01,2013-05-14 04:35:00,
2013-05-13 21:40:00,54.9,47.5,27.97,SW,231,2.0,8.0,76,0.00,,,0.36,VWS V14.01,2013-05-14 04:40:00,
2013-05-13 21:45:00,54.9,47.1,27.97,WSW,244,2.0,8.0,75,0.00,,,0.36,VWS V14.01,2013-05-14 04:45:00,
2013-05-13 21:50:00,54.9,46.8,27.97,WSW,239,3.0,12.0,74,0.00,,,0.36,VWS V14.01,2013-05-14 04:50:00,
2013-05-13 21:55:00,54.9,46.4,27.97,SSW,213,0.0,12.0,73,0.00,,,0.36,VWS V14.01,2013-05-14 04:55:00,
2013-05-13 22:00:00,54.8,46.3,27.97,West,263,3.0,6.0,73,0.00,,,0.36,VWS V14.01,2013-05-14 05:00:00,
2013-05-13 22:05:00,54.8,45.6,27.97,SW,233,0.0,9.0,71,0.00,,,0.36,VWS V14.01,2013-05-14 05:05:00,
2013-05-13 22:10:00,54.6,45.4,27.98,WSW,256,1.0,9.0,71,0.00,,,0.36,VWS V14.01,2013-05-14 05:10:00,
2013-05-13 22:15:00,54.5,44.5,27.98,WSW,237,7.0,16.0,69,0.00,,,0.36,VWS V14.01,2013-05-14 05:15:00,
2013-05-13 22:20:00,54.5,44.2,27.98,West,259,6.0,16.0,68,0.00,,,0.36,VWS V14.01,2013-05-14 05:20:00,
2013-05-13 22:25:00,54.3,43.6,27.99,West,270,0.0,16.0,67,0.00,,,0.36,VWS V14.01,2013-05-14 05:25:00,
2013-05-13 22:30:00,54.0,42.9,27.99,WSW,257,2.0,2.0,66,0.00,,,0.36,VWS V14.01,2013-05-14 05:30:00,
2013-05-13 22:35:00,53.6,42.1,27.99,West,272,7.0,11.0,65,0.00,,,0.36,VWS V14.01,2013-05-14 05:35:00,
2013-05-13 22:40:00,53.5,42.0,28.00,WSW,258,0.0,11.0,65,0.00,,,0.36,VWS V14.01,2013-05-14 05:40:00,
2013-05-13 22:45:00,53.2,40.1,28.00,West,273,4.0,13.0,61,0.00,,,0.36,VWS V14.01,2013-05-14 05:45:00,
2013-05-13 22:50:00,52.9,39.8,28.00,West,267,5.0,13.0,61,0.00,,,0.36,VWS V14.01,2013-05-14 05:50:00,
2013-05-13 22:55:00,52.6,39.5,28.00,West,267,2.0,13.0,61,0.00,,,0.36,VWS V14.01,2013-05-14 05:55:00,
2013-05-13 23:00:00,52.4,38.9,28.00,West,261,1.0,3.0,60,0.00,,,0.36,VWS V14.01,2013-05-14 06:00:00,
2013-05-13 23:05:00,52.1,38.7,28.00,West,271,4.0,8.0,60,0.00,,,0.36,VWS V14.01,2013-05-14 06:05:00,
2013-05-13 23:10:00,51.8,38.8,28.01,West,276,0.0,8.0,61,0.00,,,0.36,VWS V14.01,2013-05-14 06:10:00,
2013-05-13 23:15:00,51.4,38.4,28.00,West,273,4.0,8.0,61,0.00,,,0.36,VWS V14.01,2013-05-14 06:15:00,
2013-05-13 23:20:00,51.3,37.9,28.01,West,274,2.0,11.0,60,0.00,,,0.36,VWS V14.01,2013-05-14 06:20:00,
2013-05-13 23:25:00,51.0,38.0,28.02,WNW,297,0.0,11.0,61,0.00,,,0.36,VWS V14.01,2013-05-14 06:25:00,
2013-05-13 23:30:00,50.7,37.8,28.02,SSE,163,0.0,4.0,61,0.00,,,0.36,VWS V14.01,2013-05-14 06:30:00,
2013-05-13 23:35:00,50.1,37.6,28.03,West,281,0.0,6.0,62,0.00,,,0.36,VWS V14.01,2013-05-14 06:35:00,
2013-05-13 23:40:00,49.5,37.4,28.03,West,279,1.0,6.0,63,0.00,,,0.36,VWS V14.01,2013-05-14 06:40:00,
2013-05-13 23:45:00,49.2,37.2,28.03,WNW,286,3.0,8.0,63,0.00,,,0.36,VWS V14.01,2013-05-14 06:45:00,
2013-05-13 23:50:00,49.1,37.1,28.04,WNW,284,2.0,8.0,63,0.00,,,0.36,VWS V14.01,2013-05-14 06:50:00,
2013-05-13 23:55:00,48.9,36.5,28.04,WNW,291,6.0,8.0,62,0.00,,,0.36,VWS V14.01,2013-05-14 06:55:00,